Current weather by "City, St" or "zip code"  
 
Advertise Here

Current Conditions: Jefferson City, Jefferson City Memorial Airport, MO

Light Rain Fog/Mist


50.0 F

Last Updated on Feb 28 2021, 6:53 am CST
Humidity: 89%
Wind Speed: N 0.0 mph
Barometer 29.80 in
Dewpoint: 46.9 F
Visibility: 1.75 mi
Precip: 00.02 in
Heat Index: NA
Wind Chill: NA
Current conditions at:

Jefferson City, Jefferson City Memorial Airport, MO (KJEF)

Lat: 38.59444 Lon: 92.15583

Local Radar Image active severe weather and emergency alerts image image weather storm and storm spotter reports image weather observation monitoring service image
Local
Radar
Active
Alerts
Storm Reports Obs
Monitoring

Sign-up For Email & Text Message Weather Alert Notification Services


Advertise Here

Observation History for Jefferson City, Jefferson City Memorial Airport, MO


Time Wind
(mph)
Vis
(mi)
Weather Precip (in) Temperature (F) Relative
Humidity
Wind
Chill
(F)
Heat
Index
(F)
Pressure
Air Dwpt altimeter
(in)
sea level
(mb)
Rmks
6:53 am CST N 0.0 1.75 Light Rain Fog/Mist 00.02 50.0 46.9 89% NA NA 29.80 1008.1
5:53 am CST SE 5.8 6.00 Fog/Mist -- 50.0 46.9 89% 48 NA 29.79 1007.8
4:53 am CST N 0.0 8.00 Overcast -- 51.0 48.0 89% NA NA 29.79 1007.6
3:53 am CST NW 3.5 9.00 Overcast -- 51.0 48.0 89% NA NA 29.77 1006.9
2:53 am CST N 0.0 10.00 Overcast -- 52.0 48.9 89% NA NA 29.77 1006.9
1:53 am CST E 5.8 10.00 Overcast -- 53.0 48.0 83% 51 NA 29.78 1007.4
12:53 am CST E 4.6 10.00 Thunderstorm in Vicinity 00.16 51.0 46.9 86% 50 NA 29.80 1008.1
11:53 pm CST E 6.9 7.00 Thunderstorm in Vicinity Light Rain 00.30 51.0 46.9 86% 48 NA 29.80 1008.2
10:50 pm CST SE 6.9 8.00 Light Rain 00.15 50.0 46.0 86% 47 NA 29.83 1009.3
9:53 pm CST SE 9.2 10.00 Overcast 00.07 51.0 45.0 80% 48 NA 29.86 1010.1
8:53 pm CST E 8.1 4.00 Rain 00.04 51.0 44.1 77% 48 NA 29.87 1010.5
7:53 pm CST SE 10.4 10.00 Mostly Cloudy -- 54.0 41.0 62% 51 NA 29.87 1010.8
6:53 pm CST SE 13.8 10.00 Fair -- 57.0 39.9 53% 54 NA 29.87 1010.8
5:53 pm CST SE 10.4 10.00 Fair -- 59.0 39.0 48% 57 NA 29.88 1010.9
4:53 pm CST SE 17.3 10.00 Fair -- 63.0 37.0 38% 61 NA 29.88 1010.8
3:53 pm CST SE 9.2 10.00 Fair -- 64.0 36.0 35% NA NA 29.89 1011.4
2:53 pm CST SE 13.8 10.00 Fair -- 65.0 34.0 32% NA NA 29.91 1011.8
1:53 pm CST E 8.1 10.00 Fair -- 63.0 36.0 37% 63 NA 29.94 1012.7
12:53 pm CST SE 8.1 10.00 Fair -- 60.0 37.0 42% 59 NA 29.98 1014.2
11:53 am CST SE 6.9 10.00 Fair -- 57.0 39.0 51% 56 NA 30.02 1015.6
10:53 am CST 3.5 10.00 Fair -- 53.0 39.0 59% NA NA 30.04 1016.4
9:53 am CST SE 4.6 10.00 Fair -- 49.0 39.0 69% 47 NA 30.04 1016.5
8:53 am CST SE 5.8 9.00 Fair -- 43.0 37.9 82% 39 NA 30.04 1016.5
7:53 am CST SE 3.5 0.25 Fog -- 33.0 30.0 89% NA NA 30.04 1016.5

Regional Weather Observation


Jesse Viertel Memorial Airport, MO (KVER)

Overcast with Haze
NULL F

Jefferson City, Jefferson City Memorial Airport, MO (KJEF)

Light Rain Fog/Mist
50.0 F

Kaiser Lake Ozark, Lee C Fine Memorial Airport, MO (KAIZ)

Overcast
53.0 F

Omar N Bradley Airport, MO (KMBY)

Overcast
52.0 F

Mexico Memorial Airport, MO (KMYJ)

Fog/Mist
46.0 F

Rolla / Vichy, Rolla National Airport, MO (KVIH)

Fog/Mist
54.0 F
Advertise Here

Advertise Here